Regional Weather Roundup
Issued by NWS Northern Indiana

Home | Current Version | Previous Version | Text Only | Print | Product List | Glossary Off
Versions: 1 2 3 4 5 6 7 8 9 10 11 12 13 14 15 16 17 18 19 20 21 22 23 24 25 26 27 28 29 30 31 32 33 34 35 36 37 38 39 40 41 42 43 44 45 46 47 48 49 50

000
ASUS43 KIWX 260500
RWRIWX

KIWX WEATHER ROUNDUP
NATIONAL WEATHER SERVICE NORTHERN INDIANA
1200 AM EST MON JAN 26 2015

NOTE: "FAIR" INDICATES FEW OR NO CLOUDS BELOW 12,000 FEET WITH NO
SIGNIFICANT WEATHER AND/OR OBSTRUCTIONS TO VISIBILITY.

* THESE STATIONS ARE NOT UNDER NWS QUALITY CONTROL. THEY ALSO MAY NOT
  REPORT WEATHER SUCH AS PRECIPITATION OR FOG.

INZ001>027-260600-
NORTHERN INDIANA

CITY           SKY/WX    TMP DP  RH WIND       PRES   REMARKS
SOUTH BEND     CLEAR     20  11  68 NE7       29.96S WCI  11
GOSHEN         CLOUDY    22  10  60 NE10      29.94R WCI  11
ANGOLA*        CLOUDY    18   7  62 NE9       29.93R WCI   6
FORT WAYNE     CLOUDY    20  13  74 NE14      29.92R WCI   7

$$
INZ028>050-260600-
CENTRAL INDIANA

CITY           SKY/WX    TMP DP  RH WIND       PRES   REMARKS
LAFAYETTE      CLOUDY    25  20  81 N12       29.93R WCI  14
KOKOMO*        CLOUDY    21  16  79 NE15      29.90R WCI   8
MUNCIE*        CLOUDY    20  15  81 NE20G26   29.84R WCI   4
INDIANAPOLIS   CLOUDY    20  17  88 NE20      29.84R WCI   4

$$
MIZ043>046-050>051-056>058-064>065-071>073-077>080-260600-
SOUTHWEST LOWER MICHIGAN

CITY           SKY/WX    TMP DP  RH WIND       PRES   REMARKS
BATTLE CREEK   CLOUDY    18   8  65 NE13      29.97R WCI   5
BENTON HARBOR  CLEAR     17  10  74 NE6       29.99R WCI   9
COLDWATER*     MOCLDY    17   7  65 NE12      29.95S WCI   4
HILLSDALE*     MOCLDY    18   8  64 NE9       29.93R WCI   7
HOLLAND        CLEAR     17   9  70 NE7       30.02R WCI   8
GRAND RAPIDS   MOCLDY    17  10  74 NE9       30.01S WCI   6
KALAMAZOO      CLOUDY    18   8  65 NE10      29.97F WCI   6
STURGIS*       MOCLDY    18   9  68 NE9       29.93F WCI   6
THREE RIVERS*  FAIR      19   8  62 NE14      29.96S WCI   5

$$
OHZ001>008-015>018-024>025-260600-
NORTHWEST OHIO

CITY           SKY/WX    TMP DP  RH WIND       PRES   REMARKS
DEFIANCE       LGT SNOW  19  11  70 NE14      29.93R WCI   6
FINDLAY        LGT SNOW  18  13  80 NE16G25   29.87S WCI   3
TOLEDO EXPRESS CLOUDY    18   7  62 NE14      29.93F WCI   4
TOLEDO METCALF CLOUDY    18   7  62 NE12G20   29.94F WCI   5
LIMA           LGT SNOW  19  14  81 N18G24    29.84R WCI   4

$$
AND FOR LAKE MICHIGAN COASTAL AND OPEN LAKE BUOY OBSERVATIONS

STATION/POSITION TEMP    WIND        PRES    VSBY  WAVE
                 AIR SEA DIR/SP/G                  HT/PER
                 (F)     (DEG/KT/KT) (MB)    (MI)  (FT/S)
CALUMET HARBOR    25      20/ 14/ 20   N/A
MICHIGAN CITY     23      30/ 17/ 20   N/A
SAINT JOSEPH      19      20/  4/ 12 1015.6F

$$
&&


USA.gov is the U.S. government's official web portal to all federal, state and local government web resources and services.